Regional Weather Roundup
Issued by NWS Cleveland, OH

Home | Current Version | Previous Version | Text Only | Print | Product List | Glossary Off
Versions: 1 2 3 4 5 6 7 8 9 10 11 12 13 14 15 16 17 18 19 20 21 22 23 24 25 26 27 28 29 30 31 32 33 34 35 36 37 38 39 40 41 42 43 44 45 46 47 48 49 50

000
ASUS41 KCLE 251110
RWRCLE
OHIO REGIONAL WEATHER ROUNDUP
NATIONAL WEATHER SERVICE CLEVELAND, OH
700 AM EDT SAT APR 25 2015

NOTE: "FAIR" INDICATES FEW OR NO CLOUDS BELOW 12,000 FEET WITH NO
SIGNIFICANT WEATHER AND/OR OBSTRUCTIONS TO VISIBILITY.

OHZ001>008-015>018-024>027-034-035-043-044-251200-
   NORTHWEST OHIO

CITY           SKY/WX    TMP DP  RH WIND       PRES   REMARKS
DEFIANCE       CLOUDY    42  38  85 E13       29.88S
FINDLAY        CLOUDY    42  36  79 E12G23    29.87F
TOLEDO EXPRESS CLOUDY    41  38  89 E8        29.90F
TOLEDO EXEC    CLOUDY    42  38  85 E9        29.90F
LIMA           CLOUDY    44  31  60 E15G25    29.84F
$$

OHZ009>014-019>023-028>033-038-089-251200-
   NORTHEAST OHIO

CITY           SKY/WX    TMP DP  RH WIND       PRES   REMARKS
CLE-HOPKINS    CLOUDY    38  35  89 SE7       29.97F
CLE-LAKEFRONT  CLOUDY    41  34  76 SE6       29.96F
CUY CO. ARPT   CLOUDY    41  34  75 E5        29.97
LORAIN-ELYRIA  CLOUDY    39  39 100 S9        29.94F
ASHTABULA      CLOUDY    34  28  79 E3        29.97F
AKRON-CANTON   LGT RAIN  38  34  85 E10       29.93F
WOOSTER        CLOUDY    37  35  92 E6        29.94F
MANSFIELD      CLOUDY    38  35  89 E10       29.90F
YOUNGSTOWN     CLOUDY    37  25  61 CALM      29.95F
$$

OHZ042-051>053-060>062-070>072-077>081-251200-
  SOUTHWEST OHIO

CITY           SKY/WX    TMP DP  RH WIND       PRES   REMARKS
CINC-COVINGTON CLOUDY    49  39  68 E8        29.80F
CINC-LUNKEN    CLOUDY    49  42  77 NE6       29.82F
HAMILTON       CLOUDY    50  39  66 E3        29.84R
DAYTON         CLOUDY    49  37  63 E9        29.83F
WRIGHT-PAT AFB CLOUDY    49  36  61 NE5       29.83F
DAYTON GENERAL CLOUDY    50  30  46 E8        29.82F
WILMINGTON     CLOUDY    49  29  46 SE9       29.83F
$$

OHZ036-037-039>041-045>050-054>059-063>069-073>076-082>088-251200-
  CENTRAL AND SOUTHEAST OHIO

CITY           SKY/WX    TMP DP  RH WIND       PRES   REMARKS
COLUMBUS       CLOUDY    46  25  43 E10       29.88F
OSU AIRPORT    CLOUDY    46  25  43 E13       29.88F
BOLTON FIELD   CLOUDY    46  29  51 E10G17    29.88F
RICKENBACK AFB CLOUDY    45  30  55 E10       29.87F
NEWARK         CLOUDY    45  24  43 NE10      29.91S
MARION         CLOUDY    42  29  59 E12       29.88F
LANCASTER      CLOUDY    45  29  53 E8        29.89F
ZANESVILLE     CLOUDY    43  21  41 NE9       29.93R
NEW PHILLY     CLOUDY    42  30  62 NE5       29.96F
$$


USA.gov is the U.S. government's official web portal to all federal, state and local government web resources and services.